Location: Champignolles
(47.0543°N, 4.5663°E)
Time: 07:58:07
(UTC+00:00)

X-37B - Visible Passes

Search period start: 02 December 2021 00:00
Search period end: 12 December 2021 00:00
Orbit: 330 x 341 km, 45.0° (Epoch: 20 November)

Date Brightness Start Highest point End Pass type
(mag) Time Alt. Az. Time Alt. Az. Time Alt. Az.
07 Dec 2.7 17:16:00 10° S 17:17:28 13° SSE 17:18:08 12° SE visible
08 Dec 1.9 17:35:13 10° SW 17:37:38 24° SSE 17:37:44 24° SSE visible
09 Dec 1.7 17:55:11 10° WSW 17:57:18 34° SSW 17:57:18 34° SSW visible
10 Dec 2.1 16:40:39 10° SW 16:43:04 24° SSE 16:45:29 10° E visible
10 Dec 2.7 18:15:26 10° WSW 18:16:51 25° WSW 18:16:51 25° WSW visible
11 Dec 1.2 17:00:37 10° WSW 17:03:20 40° SSE 17:05:09 18° ESE visible
11 Dec 3.7 18:35:49 10° W 18:36:23 14° W 18:36:23 14° W visible
